Location: ??????????
(44.2167°N, 135.5333°E)
Time: 21:09:54
(UTC+00:00)

ALOS - Pass Details

Date: 15 June 2025
Orbit: 664 x 666 km, 98.1° (Epoch: 08 July)

Event Time Altitude Azimuth Distance (km) Brightness Sun altitude
Rises 16:44:20 0° 27° (NNE) 3,011 7.3 -18.2°
Reaches altitude 10° 16:47:01 10° 42° (NE) 2,093 5.9 -18.0°
Maximum altitude 16:50:34 22° 93° (E) 1,448 4.2 -17.7°
Drops below altitude 10° 16:54:05 10° 144° (SE) 2,080 4.5 -17.4°
Enters shadow 16:54:17 - 146° (SE) 2,141 4.5 -17.4°
